�������l�o���
Date,Time,MP-1(��Sv/h),MP-2(��Sv/h),MP-3(��Sv/h),MP-4(��Sv/h),MP-5(��Sv/h),MP-6(��Sv/h),MP-7(��Sv/h),MP-8(��Sv/h),����,����(m/s),���J
2024/01/10,00:00,0.510,0.771,0.485,0.976,0.694,0.313,0.561,0.526,�쐼,1.7,��
2024/01/10,00:10,0.511,0.770,0.484,0.972,0.694,0.314,0.561,0.526,��,2.5,��
2024/01/10,00:20,0.510,0.769,0.486,0.974,0.694,0.313,0.560,0.523,��,2.6,��
2024/01/10,00:30,0.511,0.774,0.486,0.975,0.693,0.313,0.560,0.525,���k��,2.3,��
2024/01/10,00:40,0.511,0.771,0.485,0.973,0.694,0.313,0.558,0.524,���쐼,2.8,��
2024/01/10,00:50,0.511,0.771,0.484,0.973,0.691,0.312,0.560,0.525,���쐼,2.3,��
2024/01/10,01:00,0.511,0.770,0.485,0.972,0.693,0.315,0.558,0.525,���쐼,2.9,��
2024/01/10,01:10,0.511,0.771,0.486,0.974,0.693,0.313,0.562,0.524,�쐼,2.6,��
2024/01/10,01:20,0.511,0.770,0.487,0.974,0.693,0.313,0.561,0.524,���쐼,2.9,��
2024/01/10,01:30,0.511,0.770,0.486,0.974,0.693,0.313,0.560,0.526,�k��,1.7,��
2024/01/10,01:40,0.511,0.771,0.488,0.975,0.691,0.314,0.560,0.524,�k��,4.7,��
2024/01/10,01:50,0.510,0.775,0.486,0.974,0.693,0.314,0.561,0.525,�k��,5.3,��
2024/01/10,02:00,0.510,0.773,0.486,0.975,0.694,0.312,0.560,0.526,�k��,4.4,��
2024/01/10,02:10,0.510,0.775,0.485,0.975,0.693,0.313,0.562,0.524,�k��,5.5,��
2024/01/10,02:20,0.510,0.770,0.485,0.976,0.694,0.314,0.561,0.524,�k��,5.8,��
2024/01/10,02:30,0.512,0.771,0.487,0.974,0.692,0.313,0.562,0.524,�k��,6.0,��
2024/01/10,02:40,0.511,0.770,0.484,0.975,0.694,0.313,0.561,0.523,���k��,6.2,��
2024/01/10,02:50,0.509,0.772,0.486,0.974,0.694,0.313,0.560,0.524,��,7.6,��
2024/01/10,03:00,0.512,0.770,0.487,0.975,0.693,0.314,0.560,0.525,��,9.8,��
2024/01/10,03:10,0.510,0.774,0.485,0.975,0.693,0.312,0.562,0.525,��,9.4,��
2024/01/10,03:20,0.512,0.771,0.486,0.973,0.692,0.314,0.560,0.525,��,7.2,��
2024/01/10,03:30,0.510,0.769,0.486,0.973,0.694,0.313,0.563,0.525,���k��,4.8,��
2024/01/10,03:40,0.510,0.771,0.486,0.976,0.693,0.313,0.562,0.526,���k��,5.2,��
2024/01/10,03:50,0.510,0.772,0.485,0.975,0.694,0.313,0.562,0.526,���k��,5.8,��
2024/01/10,04:00,0.511,0.771,0.486,0.975,0.692,0.312,0.562,0.525,���k��,6.1,��
2024/01/10,04:10,0.511,0.771,0.485,0.976,0.696,0.311,0.561,0.526,���k��,6.7,��
2024/01/10,04:20,0.512,0.770,0.486,0.975,0.693,0.312,0.561,0.524,��,7.0,��
2024/01/10,04:30,0.510,0.772,0.484,0.975,0.694,0.313,0.561,0.525,��,5.8,��
2024/01/10,04:40,0.511,0.772,0.486,0.976,0.693,0.314,0.561,0.525,��,5.5,��
2024/01/10,04:50,0.510,0.771,0.485,0.975,0.693,0.314,0.562,0.526,��,6.0,��
2024/01/10,05:00,0.510,0.772,0.486,0.975,0.693,0.313,0.560,0.526,��,5.5,��
2024/01/10,05:10,0.509,0.771,0.485,0.978,0.694,0.313,0.563,0.525,��,5.1,��
2024/01/10,05:20,0.509,0.771,0.485,0.975,0.693,0.313,0.562,0.527,��,5.1,��
2024/01/10,05:30,0.509,0.771,0.485,0.977,0.692,0.313,0.561,0.525,��,3.5,��
2024/01/10,05:40,0.512,0.770,0.486,0.975,0.695,0.313,0.560,0.525,��,4.2,��
2024/01/10,05:50,0.511,0.769,0.485,0.976,0.691,0.312,0.560,0.524,���k��,4.1,��
2024/01/10,06:00,0.511,0.770,0.484,0.976,0.693,0.313,0.561,0.525,�k��,4.8,��
2024/01/10,06:10,0.511,0.770,0.486,0.976,0.692,0.312,0.560,0.525,�k��,5.7,��
2024/01/10,06:20,0.510,0.770,0.486,0.974,0.693,0.313,0.561,0.525,�k��,5.3,��
2024/01/10,06:30,0.509,0.769,0.486,0.975,0.693,0.313,0.560,0.524,�k��,6.0,��
2024/01/10,06:40,0.511,0.771,0.485,0.977,0.693,0.313,0.561,0.526,�k��,6.9,��
2024/01/10,06:50,0.510,0.771,0.486,0.976,0.693,0.313,0.561,0.524,�k��,7.8,��
2024/01/10,07:00,0.512,0.770,0.485,0.975,0.693,0.313,0.560,0.526,�k��,7.5,��
2024/01/10,07:10,0.509,0.772,0.485,0.976,0.694,0.313,0.561,0.525,�k��,8.0,��
2024/01/10,07:20,0.511,0.771,0.486,0.976,0.694,0.313,0.559,0.526,�k��,7.6,��
2024/01/10,07:30,0.511,0.771,0.485,0.974,0.693,0.313,0.562,0.526,�k��,7.3,��
2024/01/10,07:40,0.511,0.769,0.484,0.977,0.694,0.313,0.561,0.525,�k��,8.3,��
2024/01/10,07:50,0.510,0.770,0.486,0.977,0.694,0.313,0.560,0.525,�k��,6.2,��
2024/01/10,08:00,0.511,0.771,0.486,0.977,0.693,0.313,0.560,0.526,�k��,6.7,��
2024/01/10,08:10,0.511,0.772,0.486,0.977,0.694,0.313,0.561,0.524,�k��,7.4,��
2024/01/10,08:20,0.510,0.771,0.486,0.974,0.695,0.313,0.561,0.526,�k��,7.8,��
2024/01/10,08:30,0.510,0.772,0.487,0.975,0.692,0.312,0.561,0.527,�k��,8.3,��
2024/01/10,08:40,0.511,0.773,0.485,0.975,0.692,0.312,0.561,0.525,�k��,6.8,��
2024/01/10,08:50,0.510,0.775,0.486,0.976,0.693,0.312,0.562,0.525,�k��,7.6,��
2024/01/10,09:00,0.512,0.772,0.487,0.979,0.694,0.312,0.564,0.526,�k��,7.7,��
2024/01/10,09:10,0.512,0.774,0.486,0.978,0.694,0.312,0.563,0.525,�k��,7.2,��
2024/01/10,09:20,0.511,0.771,0.487,0.976,0.693,0.313,0.562,0.526,�k��,9.2,��
2024/01/10,09:30,0.510,0.771,0.486,0.977,0.694,0.313,0.562,0.527,�k��,7.9,��
2024/01/10,09:40,0.512,0.773,0.485,0.978,0.694,0.313,0.564,0.525,�k��,7.3,��
2024/01/10,09:50,0.515,0.772,0.487,0.980,0.692,0.312,0.561,0.527,�k��,7.0,��
2024/01/10,10:00,0.512,0.769,0.486,0.979,0.693,0.312,0.562,0.526,�k��,7.8,��
2024/01/10,10:10,0.512,0.772,0.486,0.979,0.695,0.314,0.561,0.525,�k��,7.6,��
2024/01/10,10:20,0.514,0.770,0.488,0.977,0.694,0.313,0.562,0.526,�k��,7.9,��
2024/01/10,10:30,0.513,0.771,0.486,0.978,0.694,0.313,0.559,0.526,�k��,7.1,��
2024/01/10,10:40,0.513,0.771,0.487,0.979,0.694,0.314,0.562,0.527,�k��,6.8,��
2024/01/10,10:50,0.513,0.772,0.487,0.979,0.695,0.313,0.561,0.527,�k��,6.0,��
2024/01/10,11:00,0.511,0.772,0.487,0.976,0.697,0.315,0.560,0.527,�k�k��,6.9,��
2024/01/10,11:10,0.511,0.774,0.486,0.978,0.695,0.313,0.561,0.525,�k��,6.8,��
2024/01/10,11:20,0.512,0.771,0.485,0.978,0.697,0.313,0.564,0.527,�k��,7.8,��
2024/01/10,11:30,0.511,0.771,0.487,0.977,0.697,0.314,0.561,0.526,�k��,8.3,��
2024/01/10,11:40,0.512,0.772,0.485,0.979,0.696,0.313,0.562,0.527,�k��,7.2,��
2024/01/10,11:50,0.510,0.771,0.487,0.979,0.694,0.313,0.562,0.527,�k��,6.6,��
2024/01/10,12:00,0.511,0.771,0.487,0.977,0.695,0.313,0.561,0.528,�k��,7.5,��
2024/01/10,12:10,0.510,0.772,0.486,0.978,0.696,0.313,0.562,0.528,�k��,7.8,��
2024/01/10,12:20,0.511,0.771,0.487,0.980,0.698,0.314,0.563,0.528,�k�k��,7.5,��
2024/01/10,12:30,0.511,0.772,0.487,0.979,0.696,0.314,0.562,0.529,�k��,7.9,��
2024/01/10,12:40,0.512,0.772,0.486,0.976,0.696,0.313,0.562,0.528,�k�k��,7.3,��
2024/01/10,12:50,0.513,0.772,0.487,0.980,0.696,0.314,0.563,0.528,�k�k��,6.7,��
2024/01/10,13:00,0.512,0.774,0.488,0.981,0.698,0.314,0.562,0.528,�k�k��,7.2,��
2024/01/10,13:10,0.512,0.769,0.487,0.980,0.696,0.314,0.561,0.526,�k�k��,5.6,��
2024/01/10,13:20,0.511,0.771,0.486,0.978,0.696,0.314,0.563,0.525,�k�k��,7.6,��
2024/01/10,13:30,0.512,0.771,0.488,0.981,0.698,0.314,0.561,0.527,�k�k��,6.8,��
2024/01/10,13:40,0.514,0.775,0.486,0.979,0.699,0.314,0.563,0.529,�k�k��,7.0,��
2024/01/10,13:50,0.514,0.774,0.487,0.977,0.697,0.314,0.562,0.528,�k�k��,7.7,��
2024/01/10,14:00,0.513,0.775,0.487,0.979,0.697,0.314,0.562,0.528,�k��,7.6,��
2024/01/10,14:10,0.512,0.774,0.487,0.979,0.699,0.313,0.561,0.528,�k�k��,6.7,��
2024/01/10,14:20,0.513,0.775,0.488,0.979,0.700,0.314,0.562,0.527,�k�k��,6.2,��
2024/01/10,14:30,0.514,0.775,0.488,0.981,0.700,0.313,0.562,0.529,�k�k��,7.6,��
2024/01/10,14:40,0.513,0.775,0.487,0.980,0.697,0.314,0.562,0.528,�k�k��,7.2,��
2024/01/10,14:50,0.512,0.776,0.489,0.980,0.699,0.315,0.562,0.526,�k�k��,5.5,��
2024/01/10,15:00,0.513,0.776,0.488,0.980,0.698,0.313,0.562,0.527,�k,5.2,��
2024/01/10,15:10,0.512,0.774,0.488,0.981,0.698,0.314,0.562,0.527,�k,5.6,��
2024/01/10,15:20,0.512,0.776,0.488,0.980,0.698,0.314,0.562,0.528,�k�k��,6.5,��
2024/01/10,15:30,0.511,0.775,0.488,0.980,0.698,0.315,0.562,0.527,�k�k��,7.3,��
2024/01/10,15:40,0.512,0.777,0.488,0.979,0.696,0.314,0.562,0.526,�k�k��,6.8,��
2024/01/10,15:50,0.513,0.776,0.488,0.980,0.698,0.313,0.562,0.528,�k��,8.5,��
2024/01/10,16:00,0.513,0.774,0.487,0.980,0.698,0.315,0.560,0.524,�k��,8.5,��
2024/01/10,16:10,0.513,0.776,0.486,0.979,0.698,0.314,0.560,0.526,�k��,6.6,��
2024/01/10,16:20,0.514,0.776,0.487,0.979,0.697,0.314,0.562,0.527,�k�k��,7.4,��
2024/01/10,16:30,0.511,0.775,0.487,0.980,0.698,0.314,0.562,0.524,�k�k��,7.3,��
2024/01/10,16:40,0.511,0.774,0.487,0.980,0.696,0.313,0.562,0.526,�k�k��,8.2,��
2024/01/10,16:50,0.513,0.776,0.488,0.981,0.696,0.313,0.563,0.523,�k��,9.0,��
2024/01/10,17:00,0.511,0.774,0.488,0.979,0.697,0.312,0.562,0.526,�k��,9.3,��
2024/01/10,17:10,0.511,0.774,0.487,0.980,0.698,0.312,0.560,0.527,�k��,9.0,��
2024/01/10,17:20,0.511,0.774,0.487,0.980,0.699,0.313,0.565,0.525,�k��,8.3,��
2024/01/10,17:30,0.512,0.774,0.488,0.980,0.697,0.314,0.562,0.525,�k��,8.3,��
2024/01/10,17:40,0.512,0.775,0.487,0.982,0.697,0.313,0.562,0.525,�k�k��,7.9,��
2024/01/10,17:50,0.511,0.775,0.485,0.979,0.697,0.312,0.561,0.526,�k�k��,8.1,��
2024/01/10,18:00,0.510,0.774,0.487,0.981,0.695,0.311,0.563,0.526,�k�k��,8.1,��
2024/01/10,18:10,0.510,0.774,0.486,0.980,0.696,0.313,0.563,0.525,�k�k��,7.1,��
2024/01/10,18:20,0.511,0.776,0.486,0.980,0.698,0.312,0.560,0.525,�k�k��,6.5,��
2024/01/10,18:30,0.510,0.774,0.485,0.979,0.697,0.311,0.562,0.527,�k�k��,7.3,��
2024/01/10,18:40,0.514,0.774,0.485,0.981,0.696,0.312,0.561,0.524,�k�k��,6.2,��
2024/01/10,18:50,0.510,0.775,0.485,0.978,0.698,0.312,0.562,0.525,�k,5.4,��
2024/01/10,19:00,0.511,0.773,0.485,0.981,0.697,0.312,0.562,0.526,�k,3.3,��
2024/01/10,19:10,0.510,0.775,0.485,0.982,0.696,0.311,0.563,0.527,�k,4.1,��
2024/01/10,19:20,0.510,0.775,0.484,0.980,0.699,0.313,0.559,0.526,�k�k��,5.4,��
2024/01/10,19:30,0.510,0.776,0.487,0.977,0.697,0.313,0.560,0.525,�k�k��,5.5,��
2024/01/10,19:40,0.510,0.776,0.486,0.978,0.696,0.312,0.561,0.524,�k�k��,3.7,��
2024/01/10,19:50,0.510,0.775,0.485,0.979,0.696,0.312,0.561,0.526,�k�k��,3.2,��
2024/01/10,20:00,0.513,0.775,0.485,0.978,0.696,0.312,0.559,0.525,�k,2.5,��
2024/01/10,20:10,0.511,0.774,0.487,0.977,0.698,0.315,0.561,0.524,�k,2.9,��
2024/01/10,20:20,0.511,0.774,0.485,0.978,0.696,0.313,0.560,0.524,�k,3.1,��
2024/01/10,20:30,0.510,0.775,0.484,0.979,0.696,0.313,0.561,0.524,�k�k��,2.6,��
2024/01/10,20:40,0.511,0.772,0.485,0.978,0.697,0.312,0.560,0.525,�k,2.6,��
2024/01/10,20:50,0.510,0.775,0.486,0.980,0.695,0.313,0.557,0.526,�k�k��,4.9,��
2024/01/10,21:00,0.511,0.774,0.487,0.980,0.696,0.313,0.560,0.524,�k,4.1,��
2024/01/10,21:10,0.510,0.774,0.486,0.978,0.695,0.312,0.560,0.525,�k,4.5,��
2024/01/10,21:20,0.511,0.773,0.485,0.979,0.696,0.312,0.559,0.524,�k�k��,6.2,��
2024/01/10,21:30,0.511,0.775,0.486,0.980,0.697,0.313,0.559,0.526,�k,4.6,��
2024/01/10,21:40,0.509,0.774,0.485,0.981,0.697,0.313,0.559,0.525,�k�k��,6.4,��
2024/01/10,21:50,0.511,0.774,0.485,0.979,0.697,0.312,0.560,0.525,�k,8.4,��
2024/01/10,22:00,0.512,0.775,0.487,0.979,0.697,0.311,0.560,0.525,�k,7.3,��
2024/01/10,22:10,0.516,0.774,0.485,0.980,0.697,0.312,0.561,0.524,�k,7.2,��
2024/01/10,22:20,0.513,0.775,0.485,0.977,0.696,0.311,0.560,0.525,�k,7.3,��
2024/01/10,22:30,0.510,0.776,0.485,0.978,0.697,0.312,0.560,0.524,�k,6.6,��
2024/01/10,22:40,0.510,0.775,0.484,0.978,0.695,0.312,0.560,0.525,�k,6.7,��
2024/01/10,22:50,0.510,0.774,0.485,0.978,0.695,0.310,0.562,0.523,�k�k��,5.3,��
2024/01/10,23:00,0.512,0.777,0.486,0.979,0.698,0.310,0.560,0.523,�k�k��,5.5,��
2024/01/10,23:10,0.510,0.776,0.484,0.980,0.695,0.311,0.559,0.524,�k,4.3,��
2024/01/10,23:20,0.510,0.773,0.484,0.980,0.695,0.312,0.559,0.524,�k�k��,3.5,��
2024/01/10,23:30,0.510,0.773,0.486,0.979,0.696,0.312,0.558,0.524,�k,3.9,��
2024/01/10,23:40,0.511,0.773,0.485,0.978,0.695,0.312,0.560,0.525,�k,5.9,��
2024/01/10,23:50,0.509,0.774,0.485,0.978,0.695,0.313,0.559,0.523,�k�k��,6.5,��
